Location: Río de Ramacastañas
(40.1519°N, 5.0659°W)
Time: 12:45:14
(UTC+00:00)

Daily predictions for brighter satellites

Satellite Brightness Start Highest point End
(mag) Time Altitude Azimuth Time Altitude Azimuth Time Altitude Azimuth
Okean 3 Rocket 4.5 20:07:32 10° NNE 20:11:26 31° ENE 20:15:19 10° SE
Cosmos 1656 Rocket 4.1 20:08:39 10° NNW 20:14:05 63° WSW 20:19:33 10° S
CZ-4 R/B 2.4 20:11:00 10° S 20:14:38 44° W 20:18:21 10° NNW
USA 59 Rocket 2.2 20:12:50 10° N 20:15:12 15° NE 20:17:55 10° E
CSL-04 Rocket 3.6 20:10:00 10° SSE 20:15:16 76° ENE 20:20:32 10° N
CZ-4C R/B 4.3 20:12:21 10° NE 20:15:48 28° E 20:19:20 10° SSE
Cosmos 494 Rocket 4.3 20:11:09 10° SSW 20:16:13 71° WNW 20:21:21 10° NNE
Cosmos 2297 4.3 20:10:45 10° NNW 20:16:23 60° WSW 20:21:57 10° S
Cosmos 2056 Rocket 4.5 20:14:37 10° NNW 20:19:44 48° WSW 20:24:45 10° S
Resurs 01 Rocket 1.7 20:15:56 10° SSE 20:20:22 90° SW 20:24:49 10° NNW
Cosmos 1766 Rocket 3.6 20:16:02 10° N 20:20:31 75° E 20:24:58 10° SSE
CSL-04 Debris 4.3 20:17:16 10° SSE 20:22:44 86° W 20:28:12 10° NNW
Okean O Rocket 1.6 20:18:28 10° SSE 20:22:53 79° ENE 20:27:19 10° N
CARTOSAT-1 3.5 20:18:47 10° SSE 20:23:02 90° ENE 20:27:19 10° NNW
Cosmos 1452 Rocket 3.9 20:18:04 10° N 20:23:11 51° ENE 20:28:16 10° SE
PSLV R/B 3.6 20:21:42 10° SSE 20:25:24 81° ENE 20:29:03 10° N
USA 306 2.6 20:21:47 10° NW 20:25:32 77° NE 20:29:14 11° SE
Cosmos 468 4.5 20:21:13 10° S 20:26:23 72° ESE 20:31:35 10° NNE
Tsikada Rocket 4.2 20:20:15 10° S 20:26:27 83° W 20:32:47 10° N
Terra 3.6 20:24:47 10° ESE 20:27:48 17° ENE 20:30:48 10° NNE
ISS -3.3 20:25:19 10° WNW 20:28:37 54° SW 20:31:40 11° SE
Hubble Space Telescope 2.6 20:27:26 10° SSW 20:29:43 15° S 20:31:46 11° SE
USA 32 4.0 20:28:06 10° S 20:33:19 82° E 20:38:34 10° N
MOS 1-B Rocket 4.4 20:28:54 10° SSE 20:36:22 87° ENE 20:42:44 10° NNW
Cosmos 1603 3.7 20:31:03 10° SSW 20:36:42 86° ESE 20:42:27 10° NNE
SeaSat 1 2.6 20:32:53 10° SSE 20:37:46 73° WSW 20:42:41 10° NNW
Okean 1 4.0 20:34:53 10° SSE 20:38:22 33° E 20:41:52 10° NNE
Cosmos 2369 Rocket 2.9 20:33:14 10° NNW 20:38:38 51° WSW 20:44:03 10° S
Centaur D AC-29 3.5 20:34:57 10° SSW 20:39:16 26° SSE 20:51:23 10° E
DELTA 2 R/B (1) 3.9 20:37:16 10° SW 20:42:34 45° SSE 20:47:52 10° E
Cosmos 1408 Rocket 4.2 20:38:29 10° N 20:42:40 39° ENE 20:46:01 15° SE
Cosmos 1151 Rocket 4.5 20:43:17 14° SE 20:45:29 20° E 20:48:41 10° NE
OAO 3 Rocket 4.2 20:42:40 10° SW 20:46:33 25° SSE 20:49:34 14° ESE
USA 307 3.5 20:50:56 10° NW 20:50:57 10° NW 20:50:57 10° NW
Cosmos 1331 Rocket 4.0 20:52:40 10° NNW 20:57:54 87° WSW 21:02:17 15° SSE
NOSS 3-3 (A) 4.1 20:54:58 10° S 20:59:51 39° ESE 21:05:18 10° NE
Meteor 1-19 Rocket 4.4 20:57:37 10° S 21:03:22 58° E 21:08:56 10° NNE
Cosmos 1536 2.7 21:03:47 10° N 21:07:43 79° E 21:10:22 20° SSE
MetOp-B 4.1 21:03:57 15° SSE 21:08:22 82° ENE 21:13:44 10° NNW
Meteor 1-10 Rocket 4.4 21:02:52 10° SSW 21:08:34 78° W 21:14:11 10° N
Cosmos 1110 Rocket 4.4 21:04:39 10° NNW 21:09:54 62° WSW 21:14:23 14° S
Molniya-1 3.8 21:07:49 10° SSW 21:10:53 53° ESE 21:17:29 10° NE
Cosmos 1340 3.2 21:08:19 10° N 21:11:28 35° ENE 21:12:29 28° ESE
Okean-O 3.2 21:09:26 11° S 21:13:30 55° W 21:17:49 10° NNW
Nadezhda 4 Rocket 4.1 21:09:08 14° SSE 21:14:21 57° E 21:20:28 10° NNE
USA 245 2.9 21:14:21 33° ENE 21:14:25 33° ENE 21:16:41 10° N
Spot 2 Rocket 4.0 21:12:30 22° SE 21:15:21 44° ENE 21:20:08 10° N
Cosmos 1626 4.0 21:17:57 13° ENE 21:17:57 13° ENE 21:18:55 10° ENE
Cosmos 2279 Rocket 4.1 21:11:15 10° N 21:17:26 76° W 21:23:10 12° S
Meteor 2-10 4.1 21:12:35 10° N 21:17:59 68° E 21:21:14 23° SSE
Cosmos 1500 Rocket 3.4 21:14:57 10° N 21:19:15 73° E 21:21:38 26° SSE
SPOT 5 2.7 21:17:09 19° S 21:20:24 75° WSW 21:24:46 10° NNW
Meteor 1-11 Rocket 3.8 21:17:19 10° N 21:23:05 83° W 21:27:34 18° S
BREEZE-M DEB (TANK) 3.9 21:06:16 10° SW 21:24:57 84° SE 21:29:07 10° NE
Cosmos 1726 3.4 21:22:53 10° NNW 21:25:40 30° W 21:27:48 14° SSW
Sich 1 3.0 21:22:28 10° N 21:26:52 74° E 21:28:59 29° SSE
Cosmos 1805 Rocket 3.5 21:26:30 10° N 21:30:55 82° E 21:33:05 30° SSE
Meteor 2-9 Rocket 4.3 21:26:32 10° N 21:32:27 88° W 21:36:17 23° S
Cosmos 1733 2.8 21:29:04 10° N 21:32:34 82° E 21:33:38 43° SSE
Orbus 7S? 4.3 21:24:57 10° SSW 21:32:51 48° SE 21:36:37 10° ENE
NOSS 3-3 (C) 3.6 21:28:12 10° SSW 21:33:23 70° ESE 21:39:23 10° NE
Cosmos 1633 Rocket 4.4 21:30:28 10° NNE 21:34:01 23° ENE 21:34:53 22° E
Ariane Rocket 3.0 21:36:07 31° SSE 21:38:35 71° ENE 21:43:39 10° N
Cosmos 1666 Rocket 4.4 21:36:10 10° NNE 21:40:02 32° ENE 21:40:50 29° E
Meteor 2-4 Rocket 3.8 21:46:32 29° SSE 21:49:37 66° E 21:55:30 10° NNE
ERS-1 Rocket 3.3 21:48:08 26° S 21:50:53 62° W 21:55:53 10° NNW
Cosmos 1340 Rocket 3.9 21:47:51 14° SW 21:51:05 42° WNW 21:54:52 10° N
Cosmos 2026 Rocket 4.1 21:49:43 31° SSE 21:52:44 60° E 21:58:50 10° NNE
SPOT 3 Rocket 3.4 21:51:13 35° SSE 21:53:25 88° ENE 21:58:36 10° NNW
Lacrosse 4 Rocket 1.4 21:52:39 10° NNW 21:56:46 65° ENE 21:57:32 52° ESE
Cosmos 1818 4.0 21:51:41 10° SW 21:57:04 62° NW 22:02:31 10° NNE
Spot 1 3.9 21:55:39 10° NNE 21:59:50 79° ESE 22:01:02 47° S
Cosmos 1607 4.1 21:58:33 29° S 22:01:39 54° ESE 22:07:57 10° NE
Terra 2.4 22:02:56 30° SSW 22:04:57 50° W 22:09:33 10° NNW
USA 59 Rocket 0.4 22:00:41 10° NW 22:05:01 74° WSW 22:06:49 43° SSE
Cosmos 1805 3.1 22:03:09 10° NNW 22:06:52 73° W 22:07:13 66° SW
Cosmos 1627 Rocket 4.4 22:03:59 33° S 22:07:02 77° E 22:13:18 10° N
NOSS 2-1 (E) 4.0 22:03:46 10° NW 22:08:06 70° WSW 22:09:48 43° S
Cosmos 1833 Rocket 2.6 22:07:46 41° S 22:09:33 62° ESE 22:15:06 10° NNE
Cosmos 1766 4.3 22:06:34 10° NNE 22:09:34 31° ENE 22:09:34 31° ENE
IRIDIUM 106 4.2 22:06:41 10° N 22:11:55 74° E 22:13:18 49° SSE
Cosmos 1269 Rocket 4.1 22:12:55 26° SSW 22:15:54 75° WNW 22:21:12 10° NNE
Cosmos 1656 3.5 22:11:30 10° NNW 22:17:01 90° ENE 22:18:33 50° SSE
NOSS 2-1 (D) 4.4 22:17:01 10° NW 22:21:16 50° WSW 22:22:30 41° SSW
Cosmos 2082 Rocket 3.7 22:23:57 21° E 22:23:57 21° E 22:27:17 10° NE
Landsat 5 3.9 22:22:50 10° N 22:26:32 51° WNW 22:27:17 44° WSW
DELTA 2 R/B (1) 3.4 22:23:08 10° W 22:28:45 82° S 22:31:29 31° E
Cosmos 1975 3.2 22:24:55 10° NNW 22:28:45 53° W 22:28:58 52° WSW
OAO 3 Rocket 4.5 22:24:47 10° WSW 22:27:13 27° SW 22:27:13 27° SW
Cosmos 1553 Rocket 4.1 22:27:53 10° N 22:33:53 57° E 22:35:15 47° SE
Cosmos 2360 4.2 22:30:03 10° NNW 22:35:48 76° ENE 22:37:00 56° SE
Cosmos 724 4.1 22:34:35 44° SSW 22:36:33 80° ESE 22:42:25 10° NNE
ARIANE 5 R/B 3.2 22:40:25 44° ENE 22:40:25 44° ENE 22:44:24 10° N
GEOS 3 Rocket 3.5 22:35:30 10° NE 22:40:41 87° NW 22:42:27 42° SW
Cosmos 1328 Rocket 4.3 22:42:02 40° WSW 22:42:52 45° W 22:47:02 10° N
USA 281 3.2 22:41:02 48° SSE 22:43:05 81° WSW 22:49:43 10° NNW
Cosmos 1023 Rocket 4.4 22:48:16 62° SSW 22:49:10 85° WNW 22:54:25 10° NNE
Cosmos 2285 Rocket 3.9 22:48:47 56° SSE 22:50:02 71° ESE 22:56:22 10° NNE
Cosmos 1626 3.9 22:50:44 23° WNW 22:50:44 23° WNW 22:53:09 10° NNW
MetOp-A 4.5 22:52:03 42° WSW 22:52:39 44° W 22:57:24 10° NNW
Cosmos 1515 Rocket 3.6 22:54:04 76° NNW 22:54:04 76° NNW 22:58:09 10° N
CZ-2C R/B 3.6 22:49:32 10° NNE 22:53:46 80° NNE 22:53:46 80° NNE
Cosmos 1140 Rocket 3.5 22:54:17 63° SW 22:55:06 80° WNW 23:00:21 10° NNE
BREEZE-M DEB (TANK) 3.7 22:55:12 14° WSW 22:58:38 75° NNW 23:13:10 10° ENE
Cosmos 1707 3.9 23:00:27 36° NNE 23:00:27 36° NNE 23:02:44 10° NNE
Cosmos 2266 Rocket 4.0 23:02:10 55° ESE 23:02:55 59° E 23:09:04 10° NNE
PSLV R/B 4.4 23:03:34 10° NNE 23:06:48 56° N 23:06:48 56° N
Cosmos 1470 Rocket 4.2 23:04:42 10° NNW 23:08:45 49° W 23:08:45 49° W
Cosmos 1869 Rocket 4.4 23:06:27 10° N 23:10:01 42° NE 23:10:01 42° NE
NOSS 3-4 (A) 4.0 23:03:53 10° NNW 23:10:54 68° NE 23:13:38 43° ESE
NOSS 3-4 (C) 4.0 23:03:59 10° NNW 23:11:00 68° NE 23:13:46 43° ESE
Cosmos 1697 Rocket 2.5 23:06:50 10° NNW 23:12:28 80° WSW 23:12:51 75° SSW
In-Cosmos 22 4.3 23:12:55 62° ESE 23:13:07 63° E 23:18:45 10° NNE
Cosmos 1674 4.3 23:18:27 29° NW 23:18:27 29° NW 23:20:42 10° N
Lacrosse 5 rocket 3.2 23:14:52 10° NNW 23:18:15 23° NNE 23:19:04 22° NE
SL-8 R/B 3.9 23:16:47 10° NW 23:21:28 65° NNE 23:21:28 65° NNE
Cosmos 1980 Rocket 2.4 23:17:08 10° NNW 23:22:46 59° ENE 23:23:22 56° E
Cosmos 44 Rocket 3.8 23:20:23 10° NW 23:24:27 51° W 23:24:27 51° W
Cosmos 1655 Rocket 4.0 23:26:16 60° ESE 23:26:55 64° E 23:33:13 10° NNE
Cosmos 540 Rocket 4.3 23:25:21 10° N 23:30:11 39° ENE 23:30:28 38° ENE
Cosmos 1763 Rocket 3.8 23:27:30 10° N 23:32:44 58° ENE 23:32:48 58° ENE
Cosmos 1933 Rocket 4.3 23:29:40 10° NNW 23:33:13 47° WNW 23:33:13 47° WNW
H-2A R/B 3.3 23:37:54 50° NW 23:37:54 50° NW 23:41:11 10° NNW
Cosmos 407 Rocket 4.1 23:36:24 46° W 23:37:12 50° WNW 23:42:18 10° N
GP-B 4.3 23:35:11 10° NNE 23:38:18 34° NE 23:38:18 34° NE
CZ-3 Stage 3 3.6 23:18:41 10° WSW 23:42:52 50° S 23:43:39 49° S
Cosmos 676 Rocket 4.4 23:44:45 55° ENE 23:44:45 55° ENE 23:49:21 10° NNE
Cosmos 1954 Rocket 4.1 23:45:26 70° ENE 23:45:26 70° ENE 23:50:17 10° NNE
ALOS 2 3.2 23:49:40 56° N 23:49:40 56° N 23:53:10 10° N
Cosmos 2369 3.6 23:44:48 10° NNW 23:50:33 75° ENE 23:50:46 74° E
Cosmos 1190 Rocket 4.1 23:51:06 71° WNW 23:51:06 71° WNW 23:56:24 10° NNE
